Location: Newark
(52.4787°S, 179.0532°W)
Time: 12:45:34
(UTC+00:00)

Transit 2A Rocket - Pass Details

Date: 20 November 2019
Orbit: 594 x 909 km, 66.7° (Epoch: 14 December)

Event Time Altitude Azimuth Distance (km) Brightness Sun altitude
Rises 02:53:30 0° 230° (SW) 3,545 8.7 40.6°
Reaches altitude 10° 02:56:31 10° 217° (SW) 2,621 8.0 40.1°
Maximum altitude 03:01:30 25° 163° (SSE) 1,777 6.8 39.4°
Drops below altitude 10° 03:06:28 10° 108° (ESE) 2,599 7.4 38.7°
Sets 03:09:26 0° 95° (E) 3,509 7.9 38.3°
